CZ-2C R/B - Orbit

View from above orbital plane
View from above orbital plane
View from above satellite
View from above satellite

Ground track
Ground track

The orbit data is extracted from the following two-line orbital elements,

1 31114U 07010B   13137.07449645  .00000094  00000-0  63533-4 0  6817
2 31114 098.3210 097.8896 0059342 226.4317 273.1907 14.18856383315892
Epoch (UTC): 17 May 2013 01:47:16
Eccentricity: 0.0059342
inclination: 98.3210°
perigee height: 786 km
apogee height: 872 km
right ascension of ascending node: 97.8896°
argument of perigee: 226.4317°
revolutions per day: 14.18856383
mean anomaly at epoch: 273.1907°
orbit number at epoch: 31589

The dashed part of the orbit path shows where the satellite is in the earth's shadow,  

Developed and maintained by Chris Peat, Heavens-Above GmbH. Please read the updated FAQ before sending e-mail. Imprint. DLR